Temp
17 17 17 17 17 17 18 18 19 19 20 20 20 19 19 19 19 18 18 18 18 18 18 18 18 18 18 18 17 17 17 16 16 16 16 16 16 15 15 15 15 15 15 16 16 16 15 15 15 14 14 14 14 14 14 14 14 14 14 14 14 14 14 14 14 14 14 14 14
18 18 18 18 18 18 18 18 18 18 19 19 19 19 19 18 18 18 18 18 18 17 17 17 17 17 17 17 16 16 16 15 15 15 15 15 15 14 14 14 14 15 15 15 15 15 15 14 14 13 13 14 14 14 14 14 14 14 14 14 13 13 13 13 13 14 14 14 14
18 18 18 19 19 19 18 18 18 18 19 18 18 18 18 18 18 18 18 17 17 17 17 17 17 16 16 16 15 15 15 15 15 15 14 14 14 14 14 14 14 14 14 15 14 14 13 13 13 13 12 12 12 12 12 13 13 13 13 13 13 13 13 13 13 14 14 14 14
18 18 18 18 18 18 19 19 19 18 18 18 18 18 18 18 17 17 17 17 17 16 16 16 16 15 15 15 15 14 14 14 14 14 14 13 13 13 13 13 14 14 14 14 13 13 13 13 12 12 12 12 11 11 11 11 12 12 12 12 12 12 12 13 13 13 13 14 14
18 18 18 18 18 18 18 18 18 18 18 18 18 17 17 17 17 17 17 16 16 16 15 15 15 15 14 14 14 14 14 14 13 13 13 13 13 13 13 13 13 13 13 12 12 12 12 12 12 12 11 11 11 11 11 11 11 11 11 12 12 12 12 13 13 13 13 13 13
17 17 17 17 17 17 17 17 17 17 17 17 17 17 17 17 17 16 16 16 15 15 15 14 14 14 14 14 14 13 13 13 13 12 12 12 12 12 12 12 12 12 12 11 11 11 11 11 11 11 11 10 10 10 10 11 11 11 12 12 12 12 12 12 12 12 12 12 12
17 17 17 17 17 17 17 17 17 17 17 17 17 17 17 16 16 16 15 15 15 14 14 14 14 14 13 13 13 13 12 12 12 12 12 12 12 12 12 11 11 11 11 11 11 11 11 11 10 10 10 10 10 10 11 11 11 11 11 12 12 12 12 13 13 12 13 13 13
16 16 16 16 16 16 16 16 16 16 16 16 16 16 16 16 16 15 15 15 14 14 14 14 13 13 13 13 12 12 12 12 12 12 11 11 11 11 11 10 10 10 10 10 10 10 10 10 11 10 10 10 10 10 11 11 11 11 11 11 11 11 12 12 12 12 12 13 13
16 16 16 16 16 16 16 16 16 16 16 16 16 16 15 15 15 15 14 14 14 14 13 13 13 13 12 12 12 12 11 11 11 11 11 11 11 10 10 10 10 10 10 10 10 10 10 10 11 11 10 10 9 9 10 10 10 10 10 10 10 10 11 11 12 12 12 12 12
16 16 16 16 15 15 15 15 15 15 15 15 15 15 15 14 14 14 14 14 13 13 13 13 12 12 12 12 11 11 11 11 11 10 10 10 10 10 9 9 9 9 9 9 9 10 10 10 10 10 10 10 9 9 9 10 10 10 10 10 10 10 10 10 11 11 11 11 12
15 15 15 15 15 15 15 15 15 14 14 14 14 14 14 14 13 13 13 13 13 12 12 12 12 12 11 11 11 11 10 10 10 10 10 9 9 9 9 9 9 9 9 9 9 10 10 10 10 10 10 9 9 9 9 9 9 9 9 9 9 9 10 10 10 11 11 11 11
15 15 15 15 15 14 14 14 14 14 13 13 13 13 13 13 13 13 12 12 12 12 12 11 11 11 11 11 11 10 10 10 9 9 9 9 9 9 9 9 9 9 9 9 9 9 9 9 9 9 9 9 9 9 9 9 9 9 9 9 9 9 9 9 10 10 10 11 11
15 15 14 14 14 14 13 13 13 13 13 13 13 12 12 12 12 12 12 12 12 11 11 11 11 11 11 10 10 10 9 9 9 9 9 8 8 8 8 9 9 9 9 9 9 9 9 9 9 9 8 8 8 8 8 8 8 8 8 8 8 8 8 9 9 9 10 10 10
14 14 14 14 13 13 13 13 13 12 12 12 12 12 12 12 12 12 11 11 11 11 11 11 10 10 10 10 9 9 9 8 8 8 8 8 8 8 8 8 8 8 8 9 8 8 8 8 8 8 8 8 8 7 7 8 8 8 8 8 7 7 8 8 8 8 9 9 10
14 14 13 13 13 13 13 12 12 12 12 12 12 12 12 12 12 11 11 11 11 11 10 10 10 10 9 9 9 8 8 8 8 8 8 8 8 8 8 8 8 8 8 8 8 8 8 8 8 7 7 7 7 6 6 6 6 7 7 7 7 7 7 7 7 7 8 8 9
13 13 13 13 13 13 12 12 12 12 12 12 12 12 12 11 11 11 11 11 10 10 10 10 9 9 8 8 8 8 8 8 8 8 8 7 7 7 8 8 8 7 7 7 7 7 7 7 7 7 7 7 6 6 5 5 5 6 6 6 6 6 6 6 6 7 7 7 8
13 13 13 13 12 12 12 12 12 12 12 12 12 11 11 11 11 11 10 10 10 9 9 9 9 8 8 8 8 8 8 8 8 7 7 7 7 7 7 7 7 7 7 7 7 7 7 7 7 7 6 6 6 6 5 5 5 5 5 5 5 6 6 6 6 6 6 6 7
13 12 12 12 12 12 12 12 12 12 11 11 11 11 11 11 11 10 10 9 9 9 8 8 8 8 8 8 7 7 7 7 7 7 7 7 7 7 7 7 7 7 7 7 7 7 6 6 6 6 6 6 6 6 5 5 5 5 5 5 5 6 6 6 6 6 6 6 7
12 12 12 12 12 12 12 12 12 11 11 11 11 11 11 10 10 10 9 9 8 8 8 8 7 7 7 7 7 7 7 7 7 7 7 7 7 7 7 7 7 7 7 7 6 6 6 6 6 6 5 5 5 5 5 5 5 5 5 5 5 5 6 6 6 6 6 6 7
12 12 12 12 12 12 12 11 11 11 11 11 11 10 10 10 10 9 9 8 8 8 7 7 7 7 7 7 7 7 7 7 7 7 7 7 7 7 7 7 7 7 6 6 6 6 6 5 5 5 5 5 5 5 5 5 5 5 5 5 5 5 5 6 6 6 6 6 7
12 12 12 12 12 12 11 11 11 11 11 11 10 10 10 9 9 9 8 8 7 7 7 7 7 7 7 7 7 7 6 6 6 6 6 6 6 6 6 6 6 6 6 6 5 5 5 5 4 4 4 4 4 4 4 4 4 4 4 4 4 5 5 5 6 6 6 6 6
12 12 12 12 12 11 11 11 11 11 11 10 10 10 9 9 9 8 8 7 6 6 6 6 7 7 7 6 6 6 6 6 6 6 6 6 6 6 6 6 6 5 5 5 4 4 4 4 4 4 4 4 4 4 4 4 4 4 4 4 4 4 5 5 5 5 5 5 5
12 12 12 11 11 11 11 11 11 10 10 10 9 9 9 8 8 8 7 6 6 6 6 6 6 6 6 6 6 6 6 6 6 6 6 6 6 5 5 5 5 5 4 4 4 3 3 3 3 3 3 4 4 4 4 4 4 4 4 4 4 4 4 5 5 5 5 5 5
12 12 11 11 11 11 11 10 10 10 10 9 9 8 8 8 7 7 6 6 5 6 6 6 6 6 6 6 6 6 6 6 6 6 5 5 5 5 5 5 4 4 4 4 3 3 3 3 3 3 4 4 4 4 4 4 4 4 4 4 4 4 4 4 4 4 4 4 5
12 11 11 11 11 10 10 10 10 10 9 9 8 8 8 7 7 6 5 5 5 5 6 6 6 6 6 6 6 6 6 6 5 5 5 5 5 4 4 4 4 4 4 3 3 3 3 3 3 3 3 3 3 4 4 4 4 4 4 4 4 4 4 4 4 4 4 4 4
11 11 11 11 10 10 10 10 10 9 9 8 8 8 7 7 6 6 5 5 5 5 5 6 6 6 6 6 6 6 6 5 5 5 5 5 4 4 4 4 4 3 3 3 3 3 3 3 3 3 3 3 3 4 4 4 4 4 4 4 4 4 4 4 4 4 4 4 4
11 11 10 10 10 10 10 10 9 9 9 8 8 7 7 6 6 5 5 5 5 5 5 5 5 5 5 5 5 5 5 5 5 5 4 4 4 4 4 4 3 3 3 3 2 2 2 2 3 3 3 3 3 4 4 4 4 4 4 4 4 4 4 4 4 4 4 4 3
11 10 10 10 10 9 9 9 9 8 8 8 7 7 6 6 6 5 5 5 5 5 5 5 5 5 5 5 5 5 4 4 4 4 4 4 4 4 4 3 3 3 3 3 2 2 2 2 3 3 3 3 3 3 3 3 3 3 3 3 3 3 3 3 4 4 4 3 3
10 10 10 10 9 9 9 9 8 8 8 7 7 7 6 6 6 5 5 5 5 5 5 5 5 5 5 4 4 4 4 4 4 4 4 3 3 3 3 3 3 3 2 2 2 2 2 2 3 3 4 3 3 3 3 3 3 3 3 3 3 3 3 3 3 3 3 3 3
10 10 10 10 9 9 9 8 8 8 7 7 7 6 6 6 5 5 5 4 4 4 4 4 4 4 4 4 4 4 4 3 3 3 3 3 3 3 3 2 2 2 2 2 2 2 2 2 2 3 3 4 3 3 3 3 3 3 3 3 3 3 3 3 3 3 3 3 3
10 10 9 9 9 9 8 8 8 7 7 7 6 6 6 5 5 5 4 4 4 4 4 4 4 4 4 4 3 3 3 3 3 3 3 2 2 2 2 2 2 2 2 2 2 2 2 2 2 3 3 3 3 3 3 3 3 3 3 3 3 3 3 3 3 3 3 3 3
9 9 9 9 8 8 8 8 7 7 7 6 6 6 6 5 5 5 4 4 4 4 4 4 3 3 3 3 3 3 3 2 2 2 2 2 2 2 2 2 2 2 2 2 2 2 2 2 2 3 3 3 3 3 3 3 3 3 3 3 3 3 3 3 3 3 3 2 2
9 9 9 8 8 8 8 7 7 7 6 6 6 6 5 5 5 5 4 4 4 4 3 3 3 3 3 3 3 2 2 2 2 2 2 2 2 2 2 2 2 2 2 2 2 2 2 2 2 3 3 3 3 3 3 3 3 2 2 2 2 2 2 2 2 2 2 2 2
8 8 8 8 8 7 7 7 7 6 6 6 6 5 5 5 5 4 4 4 3 3 3 3 3 3 3 2 2 2 2 2 2 2 2 2 2 2 2 2 2 2 2 2 2 2 2 2 3 3 3 3 3 3 3 3 2 2 2 2 2 2 2 2 2 2 2 2 2
8 8 8 7 7 7 7 7 6 6 6 6 5 5 5 5 4 4 4 4 3 3 3 3 3 3 2 2 2 2 2 2 2 2 2 2 2 2 2 2 2 2 2 2 2 2 3 3 3 3 3 3 3 3 3 2 2 2 2 2 2 2 2 2 2 2 1 1 1
7 7 7 7 7 7 6 6 6 6 5 5 5 5 4 4 4 4 4 3 3 3 3 3 2 2 2 2 2 2 2 2 2 2 2 2 2 2 2 2 2 2 2 2 2 3 3 3 3 3 3 3 3 2 2 2 2 2 2 2 2 2 1 1 1 1 1 1 1
7 7 6 6 6 6 6 6 6 5 5 5 5 5 4 4 4 4 3 3 3 3 3 2 2 2 2 2 2 2 2 2 2 2 2 2 2 2 2 2 2 2 2 2 3 3 2 2 2 2 2 2 2 2 2 2 2 2 2 2 1 1 1 1 1 1 1 1 1
6 6 6 6 6 5 5 5 5 5 5 5 4 4 4 4 4 3 3 3 3 2 2 2 2 2 2 2 2 2 2 2 2 2 2 2 2 2 2 2 2 2 2 2 2 2 2 2 2 2 2 2 2 2 2 2 2 2 1 1 1 1 1 1 1 1 1 1 1
6 6 5 5 5 5 5 5 5 5 4 4 4 4 4 4 4 3 3 2 2 2 2 2 2 2 2 1 1 2 2 2 2 2 2 2 2 2 2 2 2 2 2 2 2 2 2 2 2 2 2 2 2 2 2 2 1 1 1 1 1 1 1 1 1 1 1 1 1
6 5 5 5 5 5 5 4 4 4 4 4 4 4 4 4 3 3 3 2 2 2 2 2 2 2 2 1 1 1 2 2 2 2 2 2 2 2 2 2 2 2 2 2 2 2 1 1 1 1 1 1 1 1 1 1 1 1 1 1 1 1 1 1 1 1 1 1 1
5 5 5 5 5 5 4 4 4 4 4 4 4 4 4 4 3 3 3 2 2 2 2 2 2 2 2 1 1 1 2 2 2 2 2 2 1 1 2 2 2 2 2 2 2 1 1 1 1 1 1 1 1 1 1 1 1 1 1 1 1 1 1 1 1 1 1 1 1
Height
800 801 801 802 804 805 807 807 807 807 807 806 806 807 807 807 808 809 810 810 811 811 812 812 812 812 813 813 813 814 814 814 814 814 814 814 814 814 813 813 813 812 812 812 812 812 811 811 811 811 811 811 810 810 810 810 810 809 809 809 808 808 808 808 807 807 808 808 808
800 801 801 802 803 804 806 807 807 806 805 805 805 806 806 807 807 808 809 809 810 810 810 811 811 812 812 812 812 812 813 813 813 813 813 813 812 812 812 812 811 811 811 811 810 810 810 810 810 810 810 809 809 809 809 809 808 808 807 807 807 807 807 806 806 806 806 806 806
800 801 801 802 802 803 803 804 804 803 803 804 804 805 805 806 807 807 808 808 808 809 809 810 810 811 811 811 811 812 812 812 812 812 812 812 812 811 811 810 810 810 810 809 809 809 809 809 809 809 809 808 808 808 807 807 807 807 807 806 806 805 805 804 804 804 805 805 805
800 800 801 801 801 801 802 802 802 802 802 802 803 804 804 805 806 807 807 807 808 808 808 808 809 809 810 810 810 811 811 811 811 811 811 811 811 810 810 809 809 809 808 808 809 809 809 808 808 808 808 807 807 807 807 806 806 806 805 805 804 804 804 803 803 803 803 803 803
800 800 800 800 800 801 801 801 801 801 801 801 802 802 803 804 805 806 806 807 807 807 807 807 808 808 808 809 809 809 810 810 810 810 810 810 809 809 808 808 808 808 808 808 808 808 808 808 807 807 807 807 807 806 806 806 805 805 805 804 803 803 802 802 802 802 802 802 802
800 800 800 801 801 801 801 801 801 800 801 801 801 802 802 803 804 804 805 806 807 807 807 807 807 807 807 807 808 808 809 809 809 809 809 809 808 808 807 807 807 807 807 808 807 807 807 807 807 807 806 806 806 805 805 805 805 804 804 803 803 802 802 802 801 801 801 801 801
800 800 801 801 801 800 800 800 800 800 800 800 801 801 802 802 803 803 804 805 806 806 806 807 807 807 807 807 807 807 808 808 808 808 808 807 807 807 807 807 807 807 807 807 807 807 807 806 806 806 806 805 805 805 804 804 804 803 803 802 802 802 802 801 801 800 800 800 800
799 800 800 800 800 800 800 800 800 800 800 800 800 800 801 802 802 803 803 804 804 805 805 806 806 806 806 806 807 807 807 807 807 807 807 807 806 806 806 806 807 807 807 806 806 806 806 806 806 805 805 804 804 804 804 803 803 802 802 802 801 801 801 800 800 800 799 799 799
798 799 799 799 800 800 800 800 800 799 799 799 799 800 800 801 801 802 802 803 803 804 805 805 805 805 806 806 806 806 806 806 806 806 806 806 806 806 806 806 806 806 806 806 805 805 805 805 805 804 804 803 803 803 803 802 802 802 801 801 800 800 800 799 799 799 798 798 798
796 797 798 798 799 799 799 799 799 799 799 799 799 799 800 800 801 801 802 802 802 803 803 804 804 804 804 805 805 805 805 805 805 805 805 805 805 805 805 805 805 805 805 805 805 805 805 804 804 804 803 803 802 802 802 802 801 801 801 800 800 799 799 799 798 798 798 797 797
794 796 797 797 798 798 799 799 799 799 799 798 798 799 799 800 800 800 801 801 802 802 802 803 803 803 803 803 803 804 804 804 804 804 804 805 805 805 805 805 805 804 804 804 804 804 804 804 803 803 802 802 802 802 801 801 801 800 800 800 799 799 799 798 798 798 797 797 797
793 794 795 796 797 797 798 798 798 798 798 798 798 798 799 799 799 800 800 800 801 801 801 802 802 802 802 802 802 802 803 803 804 804 804 804 804 804 804 804 804 804 804 803 803 803 803 803 802 802 802 802 801 801 801 800 800 800 799 799 799 798 798 798 798 798 797 797 797
792 793 794 795 796 797 797 797 798 798 798 798 798 798 798 798 799 799 799 799 800 800 800 800 800 800 801 801 801 802 802 803 803 803 803 803 803 803 803 803 803 803 803 803 803 803 802 802 802 802 801 801 801 800 800 800 799 799 799 798 798 798 798 798 798 797 797 797 797
791 792 793 794 795 796 796 797 797 797 798 798 798 798 798 798 798 798 798 799 799 799 799 799 799 799 800 800 801 801 802 802 802 803 802 802 802 802 802 802 802 802 802 802 802 802 802 802 801 801 800 800 800 800 799 799 799 799 798 798 798 797 797 797 797 797 797 797 797
790 791 792 793 794 795 795 796 797 797 797 797 797 797 797 797 797 797 797 798 798 798 798 798 798 798 799 799 800 801 802 802 802 802 802 802 802 802 802 802 802 802 802 802 802 801 801 801 801 800 800 799 799 799 799 799 798 798 798 797 797 797 797 797 797 797 797 797 797
789 790 791 792 793 794 794 795 795 796 796 796 796 796 796 796 797 797 797 797 797 797 797 797 797 798 798 799 800 801 801 801 801 801 801 801 801 801 801 801 801 801 801 801 801 801 801 800 800 800 799 799 798 798 798 798 798 798 797 797 797 797 797 797 797 797 796 796 796
788 789 790 791 791 792 793 794 794 795 795 795 795 795 795 795 795 796 796 796 796 796 796 797 797 797 798 799 799 800 800 800 800 800 800 800 800 800 801 801 800 800 800 800 800 800 800 800 799 799 799 798 798 798 798 797 797 797 797 797 797 797 797 797 796 796 796 796 796
787 788 789 790 791 791 792 792 793 793 793 794 794 794 794 794 794 794 795 795 795 795 796 796 797 797 798 798 799 799 799 799 799 799 799 800 800 800 800 800 800 800 800 800 800 799 799 799 799 799 798 798 798 797 797 797 797 797 797 796 796 796 796 796 796 796 796 796 796
786 787 788 789 790 790 791 791 792 792 792 792 793 793 793 793 793 793 794 794 794 795 795 796 796 797 797 798 798 798 798 798 799 799 799 799 799 799 799 799 799 799 799 799 799 799 798 798 798 798 798 797 797 797 797 797 797 796 796 796 796 796 796 796 796 796 795 795 795
786 786 787 788 788 789 790 790 791 791 791 791 792 792 792 792 792 793 793 793 794 794 795 796 796 797 797 797 797 798 798 798 798 798 798 798 798 798 798 798 798 798 798 798 798 798 798 798 797 797 797 797 797 797 797 796 796 796 795 795 795 795 795 795 795 795 795 795 795
784 785 786 787 787 788 789 789 790 790 791 791 791 791 791 791 792 792 792 793 793 794 795 795 796 796 796 797 797 797 797 797 797 797 797 798 798 798 798 798 797 797 797 797 797 797 797 797 797 797 797 797 796 796 796 796 796 795 795 795 795 795 795 795 795 795 795 794 795
783 784 785 786 786 787 788 788 789 789 789 790 790 790 791 791 791 792 792 792 793 794 794 795 795 795 796 796 796 796 796 796 797 797 797 797 797 797 797 797 797 797 796 796 796 796 796 796 796 796 796 796 796 795 795 795 795 795 795 794 794 794 794 794 794 794 794 794 794
782 783 784 785 786 786 786 787 787 788 788 789 789 790 790 791 791 791 791 792 792 793 794 794 795 795 795 795 795 796 796 796 796 796 796 796 796 796 796 796 796 796 795 795 795 795 795 795 795 795 795 795 795 794 794 794 794 794 794 794 794 794 794 794 794 794 794 794 794
781 782 783 784 784 785 785 786 786 787 787 788 788 789 789 790 790 791 791 791 792 792 793 793 794 794 794 794 795 795 795 795 795 795 795 795 795 795 795 795 795 795 794 794 794 794 794 794 793 793 793 793 793 793 793 793 793 793 793 793 793 793 793 793 793 793 793 794 794
781 781 782 782 783 784 784 785 785 786 786 787 788 788 789 789 790 790 790 791 791 792 792 792 793 793 793 793 794 794 794 794 794 794 794 794 794 794 794 794 793 793 793 793 793 793 793 793 792 792 792 792 792 792 792 793 793 793 793 793 793 793 793 793 793 793 793 793 793
780 780 781 781 782 782 783 783 784 785 786 786 787 787 788 788 789 789 789 790 791 791 791 792 792 792 792 793 793 793 793 793 793 793 793 793 793 793 793 792 792 792 792 792 792 792 792 791 791 791 791 791 791 791 791 792 792 792 792 792 792 792 792 792 792 792 792 793 793
778 779 780 780 781 781 782 782 783 784 785 785 786 786 787 787 788 788 789 789 790 790 791 791 791 791 791 792 792 792 792 792 792 792 792 792 792 792 791 791 791 791 791 791 791 790 790 790 790 790 790 790 790 791 791 791 791 791 791 791 791 791 791 791 792 792 792 792 792
777 778 778 779 780 780 781 781 782 783 784 784 785 786 786 786 787 787 788 788 789 790 790 790 790 791 791 791 791 791 791 791 791 791 791 791 791 791 790 790 790 790 790 790 789 789 789 789 789 789 789 789 789 790 790 791 791 791 791 791 791 791 791 791 791 791 792 792 792
776 777 777 778 778 779 780 780 781 782 782 783 784 785 785 786 786 786 786 787 788 788 789 789 789 790 790 790 790 790 790 790 790 790 790 790 790 789 789 789 789 789 788 788 788 788 788 788 788 788 789 788 788 789 790 790 790 790 790 790 791 791 791 791 791 791 792 792 792
775 776 776 777 777 778 778 779 780 781 782 782 783 784 784 785 785 785 786 786 786 787 788 788 788 788 788 789 789 789 789 789 789 789 789 789 788 788 788 788 788 787 787 787 787 787 787 787 787 787 788 788 788 788 789 789 789 789 790 790 790 790 791 791 791 791 792 792 792
774 775 775 776 776 777 777 778 779 780 781 781 782 783 783 784 784 784 784 785 786 786 787 787 787 787 787 787 787 787 788 788 788 788 788 788 787 787 787 787 787 787 786 786 786 786 786 786 786 786 787 787 787 787 788 788 789 789 789 789 789 790 790 791 791 791 792 792 792
773 773 774 775 775 776 776 777 778 779 780 781 781 782 782 782 783 783 784 784 785 785 786 786 786 786 786 786 786 786 786 787 787 787 787 787 787 787 787 786 786 786 786 786 786 786 786 786 786 786 786 786 786 787 787 788 788 788 788 789 789 790 790 791 791 791 792 792 792
772 772 773 773 774 775 776 777 777 778 779 780 780 781 781 781 782 782 783 783 784 784 784 785 785 785 785 785 786 786 786 786 786 786 786 786 786 786 786 786 786 785 785 785 785 785 785 785 785 786 786 786 786 786 787 787 788 788 788 789 789 790 790 791 791 791 792 792 792
771 771 772 772 773 774 775 776 776 777 778 778 779 779 780 781 781 781 782 782 783 783 783 783 784 784 784 785 785 785 785 785 785 785 785 786 786 785 785 785 785 785 785 784 784 784 785 785 785 785 785 785 785 786 786 787 787 788 788 789 789 790 790 791 791 791 792 792 793
769 770 771 771 772 773 774 775 776 776 777 777 778 778 779 779 780 780 781 781 782 782 782 783 783 783 784 784 784 784 784 784 784 784 785 785 785 785 785 784 784 784 784 784 784 784 784 784 785 785 784 785 785 786 786 787 787 788 788 789 789 790 790 791 791 791 792 792 793
768 769 770 771 771 772 773 774 774 775 775 776 776 777 777 778 779 779 780 781 781 781 781 782 782 783 783 783 783 783 783 783 783 784 784 784 784 784 784 784 784 784 784 784 784 784 784 784 784 784 784 785 785 786 786 787 787 788 788 789 789 790 790 791 791 791 792 792 793
767 768 769 770 770 771 772 772 773 773 774 774 775 775 776 777 778 778 779 780 780 780 780 781 781 781 782 782 782 782 782 783 783 783 783 783 783 784 784 784 784 784 784 784 784 784 784 784 784 784 784 785 785 786 786 787 787 788 788 789 789 790 790 791 791 791 792 792 793
766 767 768 768 769 770 771 771 772 772 772 773 773 774 775 776 776 777 778 778 779 779 779 780 780 780 781 781 781 782 782 782 782 782 782 782 783 783 783 783 783 783 784 784 784 783 783 783 784 784 785 785 785 786 786 786 787 787 788 788 789 789 790 791 791 791 792 792 793
765 766 766 767 768 769 769 770 770 771 771 771 772 773 774 775 775 776 776 777 777 778 778 778 779 779 780 781 781 781 781 781 781 781 781 782 782 782 782 783 783 783 783 783 783 783 783 783 784 784 785 785 785 786 786 786 787 787 788 788 789 789 790 790 791 791 792 792 793
764 764 765 766 766 767 768 768 769 769 770 771 771 772 773 773 774 775 775 776 776 777 777 778 778 779 779 780 780 780 781 781 781 781 781 781 781 782 782 782 782 782 783 783 783 783 783 783 783 784 784 785 785 785 786 786 786 787 787 788 788 789 790 790 791 791 791 792 792
763 763 764 764 765 766 766 767 767 768 769 769 770 771 771 772 773 774 774 775 775 776 776 777 777 778 779 779 779 780 780 780 780 780 780 781 781 781 781 781 782 782 782 782 782 783 783 783 783 783 784 784 784 785 785 786 786 786 787 787 788 789 789 790 791 791 791 791 792
Wind_Speed
25 24 24 24 24 25 25 24 23 23 22 22 22 21 21 20 19 18 17 17 16 16 16 16 16 17 17 18 18 18 18 18 18 18 18 19 19 19 20 20 20 20 21 21 21 20 19 17 16 14 14 14 15 16 16 16 16 17 17 18 19 21 22 23 24 24 23 22 21
23 23 23 23 24 24 24 24 23 21 20 20 20 20 20 19 18 18 17 16 16 16 16 16 17 17 17 18 18 18 18 18 18 18 19 19 19 19 19 19 19 20 20 20 20 18 16 15 13 13 13 14 14 15 16 16 16 16 16 16 17 17 18 20 22 23 23 22 21
22 22 22 22 23 23 24 23 23 21 20 19 19 19 18 18 18 17 17 16 16 16 16 17 17 17 17 17 18 18 18 18 18 18 18 18 18 18 18 18 18 18 19 18 17 16 14 13 13 13 13 14 15 16 16 16 16 15 15 15 15 15 16 17 18 20 20 20 20
22 22 22 22 22 22 23 23 22 21 20 20 19 19 18 17 17 17 16 16 16 16 16 17 17 17 17 17 18 18 18 18 18 18 18 18 17 17 17 17 17 17 17 16 14 13 12 12 13 13 14 15 16 16 17 17 16 15 15 15 15 15 16 16 16 17 17 18 19
21 20 20 21 21 21 21 21 21 21 20 20 19 19 18 17 17 17 17 16 16 16 16 17 17 17 17 17 18 18 18 18 18 18 17 17 17 17 17 17 16 16 14 13 12 12 12 13 13 14 14 15 16 17 17 16 15 15 15 15 15 16 16 16 16 16 16 17 18
20 19 19 19 19 19 19 20 19 19 19 19 19 18 18 18 18 17 17 17 16 16 16 16 16 17 17 17 17 18 18 18 18 18 17 17 17 16 15 15 15 14 12 12 11 11 12 13 14 15 15 16 16 17 16 15 14 14 15 15 15 16 16 17 17 17 17 18 19
19 19 19 19 19 19 19 19 19 19 19 19 18 18 18 18 18 17 17 17 17 17 16 16 16 16 17 17 17 17 17 17 18 18 17 17 16 15 14 14 13 12 12 11 11 11 12 13 14 15 16 16 16 15 14 13 13 14 14 15 14 14 14 16 17 17 18 19 20
19 19 19 19 19 19 19 19 19 19 19 18 18 18 18 18 17 17 17 17 17 16 16 16 16 16 16 17 17 17 17 18 18 18 17 16 15 14 13 13 13 12 12 12 12 12 12 13 14 14 15 15 14 13 12 12 12 13 13 13 13 13 13 14 15 16 17 18 19
19 19 19 19 19 19 19 19 19 19 19 18 18 17 17 17 16 16 16 16 16 16 16 16 16 16 16 17 17 17 18 18 18 18 17 16 14 12 12 12 12 12 12 12 12 12 12 13 13 13 13 12 11 11 10 11 11 12 12 11 11 11 11 12 13 14 15 16 17
21 21 20 20 20 19 19 19 19 18 18 17 17 17 16 16 16 15 15 15 15 15 15 16 16 16 16 17 17 17 18 18 17 17 15 14 12 11 12 12 13 13 12 12 12 12 12 13 12 12 11 10 10 10 10 11 11 11 10 10 9 9 10 10 11 11 12 12 13
21 21 21 20 20 20 19 19 18 18 17 16 16 16 15 15 15 15 15 15 15 14 15 15 15 15 16 16 16 16 16 16 15 14 13 12 11 12 12 13 13 13 12 11 11 12 12 12 12 11 10 9 9 9 10 11 11 10 9 8 8 8 8 9 9 9 9 9 10
21 21 21 21 20 20 19 18 17 17 16 15 15 15 15 14 14 14 14 14 13 13 14 14 14 14 14 14 14 13 13 12 12 11 11 12 13 13 13 13 13 12 12 11 11 11 11 12 12 11 10 9 9 9 9 10 10 9 8 8 7 7 7 8 8 8 7 7 8
22 22 22 21 21 20 19 18 17 16 15 15 15 14 14 14 13 13 13 12 12 12 13 13 13 13 12 12 11 10 10 10 10 11 12 13 14 13 13 12 12 12 11 11 11 11 11 11 11 10 10 9 9 9 9 9 9 9 9 8 8 7 7 7 8 7 7 7 7
22 22 22 21 21 20 18 17 16 15 15 14 14 14 13 13 12 12 12 11 12 12 11 11 11 11 10 9 8 8 8 10 11 13 13 13 13 13 12 12 11 11 10 10 10 10 10 10 10 11 10 10 9 9 9 9 9 9 8 8 7 7 7 7 7 7 7 7 7
23 22 22 21 21 19 18 17 16 15 15 14 14 13 13 12 12 11 11 11 11 11 11 10 10 9 8 8 8 8 10 12 13 14 14 13 13 12 11 11 11 10 10 10 10 10 9 9 10 11 11 11 11 10 10 10 9 9 8 8 7 7 7 7 7 7 7 8 8
23 23 23 22 21 19 18 17 16 15 14 14 13 13 12 12 11 11 11 11 11 10 10 9 8 8 7 8 9 10 12 13 14 14 13 13 12 12 11 11 10 10 10 10 10 10 9 9 10 11 12 12 12 12 11 11 10 10 9 8 7 7 7 7 8 7 7 8 8
24 24 23 22 21 19 18 17 16 15 14 14 13 13 12 12 11 11 11 10 10 10 9 8 8 8 8 9 10 11 13 14 14 14 13 13 13 12 11 11 11 11 11 10 10 10 10 9 9 10 11 12 12 12 12 12 11 11 10 9 8 8 8 8 8 8 8 8 8
24 24 23 22 20 19 18 16 15 14 14 13 13 12 12 12 11 11 10 10 10 9 9 8 8 9 9 10 11 12 13 13 13 13 13 13 13 13 12 12 12 12 11 11 11 11 11 10 9 9 10 11 12 13 13 13 13 12 11 10 9 8 8 8 8 8 8 8 7
24 24 23 22 20 19 17 16 15 14 14 13 13 12 12 11 11 10 10 10 10 10 9 9 10 10 10 11 11 12 13 13 13 13 13 13 13 13 13 13 13 13 12 12 12 12 12 11 11 11 11 12 13 14 14 14 13 13 12 11 9 8 8 9 9 9 8 8 7
25 24 23 22 20 19 17 16 15 14 13 13 13 12 12 11 11 11 11 11 11 11 11 11 11 11 12 12 13 13 13 13 13 13 13 13 13 13 13 13 14 14 13 13 12 12 12 13 13 13 14 14 14 14 14 14 13 12 11 10 9 8 9 9 9 9 9 8 8
25 25 23 22 20 19 17 16 15 14 13 13 13 13 12 12 12 12 12 12 12 12 12 13 13 13 13 14 14 14 13 13 13 13 13 13 13 13 14 14 14 14 14 14 14 14 14 15 15 16 16 16 15 15 14 13 12 12 11 10 9 9 9 9 9 9 9 9 9
26 25 23 22 20 19 17 16 15 14 14 13 13 13 12 12 12 12 13 13 13 14 14 14 14 14 14 15 14 14 14 14 14 14 14 14 14 14 14 14 14 14 14 15 15 15 16 16 17 17 16 15 14 14 13 13 12 12 11 11 10 10 10 10 10 10 10 10 10
26 24 23 21 20 18 17 16 15 15 14 14 14 13 13 13 13 13 13 13 14 15 15 15 15 15 15 15 14 14 14 14 14 14 14 14 14 14 14 14 14 14 15 15 16 17 17 18 19 19 17 15 14 13 13 13 13 12 12 11 11 11 11 11 11 12 12 11 11
26 24 23 21 20 19 17 17 16 15 15 15 15 14 14 13 13 13 13 14 15 16 16 16 16 15 15 14 14 14 14 14 14 14 14 14 14 14 14 14 15 15 16 17 17 18 19 20 20 20 18 16 14 13 14 14 13 13 12 12 12 12 12 12 12 12 12 12 12
25 24 23 21 20 19 18 17 17 16 16 15 15 15 14 14 14 13 13 14 15 16 16 16 16 16 15 14 14 15 15 15 14 14 14 14 14 14 15 16 16 17 18 19 20 20 20 20 20 19 17 15 14 14 14 14 14 13 13 12 13 13 14 13 12 12 12 12 12
25 24 23 22 20 19 19 18 17 17 16 16 15 15 15 15 14 14 13 14 14 15 15 16 16 16 15 15 15 16 16 16 16 15 15 15 15 16 16 17 18 19 20 20 20 20 19 18 17 15 14 13 13 14 15 15 14 13 13 13 13 14 14 14 13 12 12 11 11
25 24 23 22 21 20 19 19 18 17 17 17 16 16 15 15 14 14 13 13 14 15 15 16 16 16 16 16 15 15 15 16 16 16 16 16 16 16 17 19 19 20 21 21 20 19 17 14 13 13 12 12 13 14 15 14 14 14 14 14 14 15 15 15 14 13 11 11 10
25 24 23 22 21 20 20 19 18 18 18 17 17 16 15 15 15 14 14 14 14 15 15 15 16 16 16 16 15 14 14 14 15 15 16 16 17 18 19 20 21 21 21 20 18 15 13 12 11 12 12 12 12 13 13 14 14 15 15 15 15 15 15 14 13 12 11 10 9
26 24 23 22 22 21 21 20 20 19 18 18 17 16 16 16 16 15 15 15 15 15 16 15 16 16 16 16 16 15 15 15 15 16 17 18 18 19 20 19 19 18 17 16 14 12 11 11 11 11 12 13 12 12 12 13 14 15 15 15 15 14 14 13 12 11 10 9 9
26 25 24 23 23 22 22 21 21 20 19 18 17 17 17 17 17 16 16 16 16 16 16 16 16 16 16 16 16 16 16 16 16 16 16 16 16 16 16 15 15 14 13 12 11 10 10 11 11 11 11 13 13 12 11 11 13 14 15 15 15 14 14 13 12 10 9 9 8
26 25 24 24 24 23 23 22 21 20 19 18 18 18 18 18 18 18 17 16 16 16 16 15 15 15 15 15 15 14 14 14 14 13 13 12 12 12 12 12 11 11 11 10 10 10 10 11 11 11 11 12 13 11 10 10 12 14 15 16 15 15 14 12 11 10 9 8 9
26 25 25 24 24 24 23 22 21 20 19 19 19 19 19 19 18 18 17 16 15 15 15 15 14 14 14 13 13 12 12 12 11 11 10 10 10 10 10 10 10 9 9 10 10 10 10 11 11 10 10 12 12 11 9 10 12 14 16 16 15 14 13 12 10 8 8 8 9
26 25 25 25 24 24 23 22 21 20 20 20 20 19 19 19 18 17 16 15 15 15 14 14 14 13 13 12 11 11 11 11 10 10 10 10 9 9 9 9 9 9 9 9 9 9 10 10 10 10 10 12 12 10 9 10 13 15 15 15 15 13 12 10 8 7 7 8 10
26 25 25 25 24 23 23 22 21 21 20 20 20 20 19 19 18 17 16 15 15 14 14 14 13 13 12 11 11 11 11 11 11 10 10 10 9 9 9 9 8 8 8 7 7 8 8 9 10 10 11 13 12 10 10 11 13 15 15 15 14 13 11 9 7 6 7 9 11
25 25 25 24 24 23 22 22 21 21 21 21 21 20 20 19 18 17 16 15 14 14 14 14 13 12 11 11 11 12 12 11 11 10 10 9 9 9 9 8 7 7 6 6 6 7 8 8 8 10 12 12 11 10 10 12 13 14 14 14 13 12 11 9 7 7 8 10 12
24 24 24 23 23 22 22 22 21 21 21 21 21 21 20 19 18 17 15 15 14 14 14 14 13 12 12 12 12 12 12 12 11 10 9 9 9 9 8 7 7 6 5 5 5 6 6 7 9 11 12 11 10 9 10 12 13 14 14 13 13 12 11 9 8 8 9 11 12
23 24 23 23 22 22 22 21 21 22 22 22 22 21 20 18 17 16 15 15 15 15 15 15 14 14 14 13 13 13 12 12 11 10 10 9 9 9 8 7 6 6 6 5 5 6 7 8 9 10 9 9 8 9 10 12 13 14 14 14 13 12 11 9 9 9 10 11 11
23 23 23 23 23 22 22 22 22 22 23 23 22 21 19 18 17 16 16 16 16 16 17 16 15 15 14 14 14 13 12 12 11 11 10 10 10 9 8 7 7 7 6 5 5 6 7 8 8 8 7 7 8 9 10 12 13 14 14 14 13 12 11 10 10 9 10 10 10
23 23 23 23 23 23 23 23 23 23 23 23 22 21 19 18 17 17 16 16 17 17 17 17 16 15 14 14 13 13 13 12 11 11 11 10 10 9 8 8 8 8 7 7 6 6 7 7 7 7 7 7 8 9 11 13 14 15 15 14 14 13 12 11 11 10 10 10 10
22 22 23 23 23 23 23 23 24 24 23 23 22 21 20 19 18 17 17 17 17 18 17 17 15 15 14 14 13 13 13 13 12 11 11 10 10 9 9 9 9 9 9 8 8 7 7 7 7 8 8 8 9 10 11 13 14 15 15 15 14 14 13 12 12 11 11 11 11
22 22 22 23 23 23 23 24 24 24 24 23 23 22 20 19 18 18 18 18 18 18 17 16 15 14 14 14 14 14 14 13 12 12 11 10 10 9 10 10 10 10 10 10 9 9 8 8 8 8 9 9 9 11 12 14 15 15 15 15 15 14 14 13 13 12 12 12 11
Wind_Direction
234 232 230 229 229 229 229 229 227 225 223 220 217 216 215 215 214 215 217 221 224 228 232 237 241 244 248 250 252 253 254 256 258 261 264 267 270 273 276 279 283 285 287 288 288 287 284 280 276 273 272 273 274 275 276 276 275 274 273 271 270 269 267 265 262 261 261 262 265
227 226 224 223 223 222 222 223 222 220 218 217 216 216 215 215 215 216 220 223 226 230 233 237 241 243 245 247 250 251 253 256 259 263 266 269 272 276 279 283 285 287 289 289 288 286 283 278 274 272 272 274 275 276 275 275 274 273 273 273 273 272 271 267 264 261 259 260 263
223 223 223 222 221 220 218 218 217 215 213 212 213 214 215 216 219 222 224 226 229 232 234 236 239 241 243 245 249 251 254 257 260 264 267 270 274 278 282 284 286 287 288 289 287 284 280 277 276 278 281 283 284 283 281 279 277 276 276 276 277 278 278 275 269 263 260 259 262
224 224 224 223 221 220 218 217 215 212 210 210 211 212 214 217 220 223 226 228 230 232 234 235 237 239 242 245 248 252 255 258 261 264 267 271 276 280 283 285 286 287 288 288 285 281 278 278 282 286 290 290 289 287 285 284 281 280 279 280 281 283 284 283 277 270 264 261 262
225 223 222 221 220 219 218 217 215 212 211 211 211 212 214 218 221 223 225 227 229 231 233 235 236 238 242 245 249 253 257 260 263 265 269 273 278 282 285 286 286 287 286 285 282 280 281 284 288 290 291 290 287 286 285 284 284 284 284 284 285 286 287 287 285 279 271 266 264
225 223 221 220 219 218 217 216 215 214 213 213 213 214 216 219 222 223 225 226 228 230 233 235 237 239 243 247 251 255 259 262 265 268 272 277 281 283 284 285 285 285 283 281 281 284 287 290 292 292 290 288 286 285 286 287 287 287 285 284 284 285 288 289 288 285 280 275 270
227 225 223 221 220 219 218 217 217 217 217 217 218 219 220 222 224 225 226 228 229 232 234 237 239 242 245 249 253 256 260 263 267 271 276 279 282 282 281 280 280 279 279 279 283 287 290 291 291 289 287 285 285 285 286 286 285 284 283 282 282 283 285 285 284 284 283 280 276
230 229 228 226 225 224 224 223 222 222 222 222 223 223 224 225 225 226 228 230 231 234 237 240 243 245 248 251 254 257 261 265 269 273 276 279 279 278 276 276 276 277 278 279 282 285 286 286 285 283 282 281 281 280 280 281 281 281 281 283 285 286 285 283 281 281 280 278 273
231 231 232 231 231 230 230 229 229 228 227 226 225 225 225 226 226 227 229 231 234 237 241 243 246 248 250 253 255 259 263 267 270 273 275 276 274 271 272 273 275 276 277 277 279 280 281 281 281 281 281 281 280 281 282 282 281 281 281 284 288 290 290 289 287 285 281 276 268
230 231 232 232 232 232 232 232 232 231 229 226 225 224 224 225 226 228 230 233 237 240 243 245 248 250 252 255 258 261 264 267 270 272 273 271 268 266 267 269 269 270 271 273 275 277 279 280 282 282 283 284 285 287 287 285 283 282 283 286 291 295 296 295 292 289 284 277 267
227 229 229 229 230 230 231 229 229 228 226 224 223 223 224 225 227 230 233 236 239 241 244 248 251 253 255 258 260 262 264 266 268 269 268 264 262 261 261 260 260 261 264 267 270 273 276 278 280 282 284 287 289 289 288 285 282 281 283 287 291 296 298 295 291 287 284 280 273
225 226 227 228 228 228 227 225 224 223 222 222 223 224 226 228 230 232 235 238 241 244 247 251 254 257 258 258 259 260 261 263 263 263 261 259 258 256 253 251 253 256 259 261 265 268 270 273 277 280 284 287 290 292 291 288 282 278 278 281 284 291 297 297 291 285 281 280 278
221 222 223 224 224 223 222 221 221 222 222 223 225 227 228 230 232 235 238 241 244 249 253 256 257 257 256 255 256 256 256 255 254 253 252 251 250 248 247 247 250 254 256 256 258 260 263 267 272 277 281 286 290 293 294 294 290 283 277 275 278 285 296 301 297 291 286 284 283
217 218 219 219 219 219 219 220 222 224 225 227 228 229 231 233 235 238 242 246 251 254 257 257 256 253 251 249 249 249 249 248 245 243 242 241 240 240 241 244 248 251 251 250 249 251 254 261 268 273 278 283 289 292 295 299 300 295 289 285 284 287 293 298 296 295 295 296 294
213 215 217 218 217 218 219 221 224 226 228 229 230 232 234 237 240 244 248 251 255 257 258 256 251 246 242 238 237 238 240 240 238 235 233 232 233 234 237 242 245 246 245 242 242 243 248 256 265 272 279 284 290 295 298 302 303 303 301 298 293 290 288 287 285 288 292 295 294
211 213 215 216 217 218 220 222 225 227 229 231 233 236 239 242 246 249 252 254 257 257 256 251 242 234 228 226 226 228 231 232 232 230 229 229 230 232 235 238 241 241 239 237 237 240 244 252 264 275 282 288 293 297 300 301 302 302 301 300 295 290 285 281 280 280 282 284 285
210 212 214 216 217 218 220 222 224 227 230 232 236 240 244 247 249 252 254 256 257 255 249 240 230 222 220 221 223 224 226 227 228 228 228 228 229 230 233 235 237 238 237 235 237 239 243 249 262 275 283 288 293 296 298 298 297 296 296 296 294 290 285 280 278 278 279 280 280
210 212 215 216 218 219 221 222 224 227 231 234 239 243 247 250 251 254 256 257 254 248 238 229 221 218 219 221 222 223 224 226 227 228 228 228 228 230 232 235 238 239 239 238 240 242 244 248 256 266 276 284 290 293 295 294 293 292 292 292 291 288 282 276 273 273 275 278 278
211 213 215 217 218 219 221 223 226 229 233 237 241 245 248 250 252 254 255 253 248 239 230 223 220 220 220 221 222 222 224 226 228 229 229 229 230 232 234 238 241 243 243 243 243 245 249 252 256 263 273 281 287 290 291 290 289 288 288 288 287 284 276 270 266 266 270 276 275
213 215 216 218 219 219 221 224 227 231 235 238 241 243 246 248 252 254 252 247 240 232 224 221 221 221 221 222 222 222 223 226 228 229 230 231 232 234 237 240 243 246 247 247 248 251 256 260 264 270 277 283 286 286 285 284 282 281 281 281 281 278 273 268 265 266 270 273 272
215 217 218 219 219 220 222 225 229 232 234 236 239 241 243 247 250 253 251 245 235 226 221 221 222 222 222 222 222 223 225 227 229 231 233 235 235 237 240 243 245 247 250 253 257 262 266 269 273 277 281 284 284 282 278 276 274 273 272 272 272 270 268 266 265 266 267 268 266
217 219 219 220 220 221 224 227 230 232 233 234 236 239 242 245 249 251 249 241 230 221 219 221 223 224 223 223 223 226 229 233 235 237 238 239 241 242 244 247 249 252 257 262 267 271 275 278 281 285 287 287 283 277 271 267 265 265 266 266 266 265 264 262 261 261 261 262 262
219 220 220 220 221 222 225 227 229 230 231 232 234 236 239 242 246 247 243 233 223 219 219 222 224 224 225 226 229 232 236 239 241 242 243 244 245 246 249 253 258 264 269 274 278 282 284 286 288 290 290 287 279 270 263 260 259 260 261 263 264 263 261 259 257 255 256 259 262
220 220 220 220 221 223 225 227 228 229 229 230 232 234 237 240 241 240 235 226 219 217 220 223 225 227 228 231 236 240 243 245 246 246 247 249 251 254 260 266 271 276 280 282 285 286 288 289 289 288 285 280 270 262 256 255 255 256 258 261 262 261 258 256 253 252 253 255 258
220 220 220 220 221 223 225 227 227 228 228 229 231 234 235 236 236 234 230 224 219 219 221 225 228 231 234 238 242 246 248 249 250 252 254 257 261 266 271 276 280 283 284 284 285 285 285 285 283 281 277 269 260 253 250 250 252 254 257 259 258 257 254 252 250 249 250 250 249
219 219 219 220 221 223 225 226 227 228 228 229 231 232 233 232 232 231 228 225 223 223 225 228 231 235 240 243 245 247 249 250 253 256 260 264 268 272 275 278 280 282 283 284 285 285 282 278 273 270 266 258 250 245 244 246 249 252 255 255 254 251 249 247 246 245 244 243 239
218 218 219 221 222 223 224 226 227 227 228 228 229 230 230 229 228 228 227 226 226 227 228 230 233 237 241 243 244 246 248 250 254 258 262 266 270 273 275 276 279 280 282 284 285 284 279 271 261 256 253 248 244 242 243 246 249 252 252 250 248 245 244 242 241 239 236 232 227
217 218 220 221 221 223 224 225 224 225 225 227 227 227 227 226 225 225 226 227 227 227 229 231 235 238 241 243 246 248 251 255 258 262 265 268 271 273 275 276 278 279 281 282 282 279 272 261 251 247 245 242 240 240 244 248 251 251 248 244 241 239 238 236 234 231 225 219 213
218 220 220 221 221 222 223 222 222 223 224 225 225 226 225 224 223 224 225 227 227 227 229 232 237 240 242 246 250 255 258 261 263 266 268 270 272 273 275 276 277 277 278 277 275 271 263 253 244 242 243 240 236 236 240 246 249 247 243 239 237 236 234 230 227 221 216 210 205
220 221 221 222 222 221 221 221 222 222 223 223 223 224 223 223 223 224 225 226 227 229 232 236 240 243 246 249 253 257 260 262 265 266 267 269 271 273 274 275 275 275 273 270 266 263 257 248 241 243 244 238 233 230 233 241 244 242 238 234 233 233 231 226 220 214 210 208 205
221 222 222 222 221 221 220 221 221 221 221 222 222 223 224 224 224 226 228 229 231 234 237 241 244 247 250 251 253 255 257 259 260 261 262 264 267 270 272 272 272 272 271 268 263 259 253 245 241 246 248 236 228 225 229 238 241 239 235 231 229 228 225 219 213 210 209 212 207
221 221 221 221 220 220 220 220 219 220 220 221 222 224 225 226 227 230 233 236 237 238 241 244 246 248 249 249 249 250 251 252 252 253 253 255 258 263 267 269 270 273 274 271 266 260 251 241 242 250 248 231 222 220 226 236 239 236 231 227 225 222 217 212 207 209 214 215 206
221 221 220 220 220 220 219 219 218 219 220 221 223 225 226 228 229 232 234 237 238 239 242 244 245 245 244 243 242 241 242 243 244 244 245 246 250 256 263 269 274 278 278 272 263 253 244 238 246 250 240 223 218 219 226 234 235 231 225 221 218 215 210 205 205 211 216 211 200
220 220 220 220 220 220 219 219 219 219 220 222 224 226 227 228 229 231 232 235 237 239 241 243 244 244 244 242 240 237 237 238 239 240 240 242 246 253 262 270 279 281 276 264 249 240 240 244 250 240 223 214 215 219 226 231 229 224 218 213 210 206 202 199 203 212 213 204 192
220 219 219 220 220 220 220 220 219 220 221 222 224 225 226 227 229 231 234 236 237 237 238 239 241 243 244 243 240 239 238 238 239 239 239 240 244 250 258 267 275 274 263 246 237 240 246 245 231 215 208 209 213 219 224 225 222 217 212 207 203 200 197 195 200 208 208 199 190
220 219 219 220 220 221 221 220 220 221 221 222 223 223 224 225 229 232 235 237 236 235 234 234 236 239 241 241 240 239 239 241 241 241 239 240 243 248 254 260 263 256 242 231 232 233 228 214 202 200 203 208 212 217 220 219 216 211 206 202 199 197 195 194 199 205 205 198 193
220 220 221 221 222 222 222 222 221 221 222 222 223 222 222 224 228 232 235 235 233 231 230 229 232 235 238 241 241 241 242 243 243 241 238 237 239 242 247 250 248 238 227 222 216 206 198 192 195 201 206 210 213 216 216 214 211 207 203 200 198 197 195 194 198 203 204 200 198
221 221 222 223 224 224 224 223 222 222 222 223 223 223 223 225 228 232 234 232 230 228 227 227 229 233 237 241 243 245 245 245 243 240 237 234 234 236 239 241 236 227 216 206 196 193 196 201 207 212 217 219 220 218 215 212 208 205 202 200 199 198 196 194 197 200 202 201 200
222 223 224 224 225 224 224 223 223 223 223 223 223 223 224 226 230 233 233 231 229 228 227 227 230 233 237 240 243 245 246 244 241 239 237 235 233 232 233 234 231 224 214 205 197 197 206 219 227 231 232 231 227 222 217 213 209 206 204 202 201 199 198 196 196 197 198 197 198
223 224 225 226 225 225 224 224 224 224 225 224 224 224 225 227 230 233 233 230 229 229 230 231 234 237 240 240 241 242 242 241 238 237 237 237 234 231 230 231 230 226 222 216 214 214 220 231 236 239 240 236 230 224 219 214 210 207 205 204 202 200 198 197 196 195 195 193 192
224 225 226 226 226 225 224 223 224 225 226 226 226 226 228 229 231 231 231 229 228 229 231 235 239 242 242 240 238 238 237 236 235 235 237 237 234 231 229 230 230 229 227 227 227 228 228 231 233 237 239 233 226 221 217 213 210 207 205 204 203 200 198 197 196 196 195 193 191